Hourly Data Report for October 29, 2013

All times are specified in Local Standard Time (LST). Add 1 hour to adjust for Daylight Saving Time where and when it is observed.

SAINT JOHN A
NEW BRUNSWICK

45°18'58.000" N
65°53'24.000" W
108.80 m
8104901
71609
YSJ

Download Data

Hourly Data (October 2013)
Hourly Data Report for October 29, 2013
Temp Definition
°C
Dew Point Temp Definition
°C
Rel Hum Definition
%
Wind Dir Definition
10's deg

Wind Spd Definition
km/h
Visibility Definition
km
Stn Press Definition
kPa
Hmdx Definition


Wind Chill Definition


Weather Definition


TIME
00:00 Legend Double Dagger -0.3 -1.6 91 32 16 24.1 101.13   -5 LegendNANA
01:00 Legend Double Dagger -0.6 -2.2 89 31 14 24.1 101.18   -5 LegendNANA
02:00 Legend Double Dagger -1.8 -2.8 93 32 11 24.1 101.22   -6 Clear
03:00 Legend Double Dagger -2.5 -3.5 93 32 13 24.1 101.26   -7 LegendNANA
04:00 Legend Double Dagger -2.8 -3.9 92 33 5 24.1 101.30   -5 LegendNANA
05:00 Legend Double Dagger -3.8 -5.2 90 34 13 24.1 101.36   -9 Clear
06:00 Legend Double Dagger -3.7 -5.0 91 32 12 24.1 101.41   -8 LegendNANA
07:00 Legend Double Dagger -4.0 -5.1 92 33 15 24.1 101.43   -9 LegendNANA
08:00 Legend Double Dagger -1.4 -3.6 85 32 11 24.1 101.52   -5 Mainly Clear
09:00 Legend Double Dagger 0.5 -3.4 75 31 16 24.1 101.57     LegendNANA
10:00 Legend Double Dagger 2.2 -3.7 65 31 14 24.1 101.55     LegendNANA
11:00 Legend Double Dagger 3.7 -4.3 56 31 19 24.1 101.52     Mainly Clear
12:00 Legend Double Dagger 4.9 -3.6 54 30 12 24.1 101.48     LegendNANA
13:00 Legend Double Dagger 5.6 -4.6 48 31 12 24.1 101.39     LegendNANA
14:00 Legend Double Dagger 6.2 -4.9 45 27 14 24.1 101.35     Mainly Clear
15:00 Legend Double Dagger 6.5 -6.5 39 31 19 24.1 101.36     LegendNANA
16:00 Legend Double Dagger 6.1 -6.2 41 33 13 24.1 101.40     LegendNANA
17:00 Legend Double Dagger 3.1 -5.3 54 35 11 24.1 101.43     Mainly Clear
18:00 Legend Double Dagger 0.9 -4.8 66 34 10 24.1 101.47     LegendNANA
19:00 Legend Double Dagger -1.1 -4.6 77 35 10 24.1 101.48   -5 LegendNANA
20:00 Legend Double Dagger -2.0 -4.8 81 2 5 24.1 101.52   -4 Clear
21:00 Legend Double Dagger -2.1 -4.8 82 10 2 24.1 101.54   -3 LegendNANA
22:00 Legend Double Dagger -2.8 -5.0 85 8 3 24.1 101.49   -4 LegendNANA
23:00 Legend Double Dagger -4.3 -5.9 89 9 10 24.1 101.43   -8 Clear

Notes on Data Quality.

Legend

  • E = Estimated
  • M = Missing
  • NA = Not Available
  • ‡ = Partner data that is not subject to review by the National Climate Archives
Date modified: